LogoCoinalyze
    Ad-Free Version Inicio Mercados Tasas de Financiamiento
    Datos de futuros
    • Datos agregados (Monedas)
    • Gráficos individuales
    • Gráficos globales
    Alertas
    TA
    Bitcoin Ethereum BNB Ripple Tron ZCash Dogecoin Monero Chainlink UNUS SED LEO Cardano Stellar Lumens Bitcoin Cash Litecoin Hedera Cronos Polkadot Ethereum Classic Algorand Cosmos Quant Dash VeChain Bitcoin SV BitTorrent Terra Decred Tezos Iota The Graph THETA Decentraland NEO MultiversX Chiliz Horizen Golem Basic Attention Token Qtum 0x DigiByte Beam RIF Token FTX Token Holo FUNToken aelf Ontology Zilliqa Nano Enjin Coin Ravencoin Verge Mask Network Siacoin Status WINk Waves IoTeX iExec RLC Power Ledger Steem Lisk Kyber Network Crystal Ark WOO Network Ardor IOST WAX Icon Storj Wanchain Loopring Bitcoin Diamond Augur AdEx Bitcoin Gold OmiseGO NEM MonaCoin BitShares Ren Komodo V Systems Nuls Mithril SOLVE Maker EOS Aion Nebulas HedgeTrade Bread Waltonchain Polygon TomoChain Metaverse ETP Fetch.ai GXChain Fantom MaidSafeCoin Bytom QASH
    Ordenar por:
    Más
    • API
    • Patrones de velas
    • Donar
    • Contacto
    • Mapa del Sitio
    • Privacy Policy
    • Disclaimer
    • Theme:
    Español
    • English
    • Français
    • Русский
    • Deutsch
    • Türkçe
    • Nederlands
    • Português (BR)
    • 한국어
    • 简体中文
    • 日本語
     
    Iniciar sesión / Registrar
    Markets/ Pepe/ PEPE a USD/ PEPEUSD Bitfinex
    Trades
    WL
    Chat
    Estad.
    Noticias
    ⦷
    AAA
    0.00000385 32441838.20519481 17:47:07
    0.00000385 386100176.87707907 17:47:07
    0.00000385 49955790.87888051 17:47:07
    0.00000385 21629493.97799000 17:47:07
    0.00000385 101729521.29099400 17:47:07
    0.00000384 21629493.97799000 17:47:07
    0.00000383 1132532.38058620 17:46:18
    0.00000383 1741426.48887878 17:46:17
    0.00000380 557104.06696453 17:25:12
    0.00000380 856628.11446154 17:25:12
    0.00000380 21629493.97799000 17:25:12
    0.00000381 923199.95941561 17:22:20
    0.00000381 1006357.97312486 17:22:19
    0.00000382 413117.15143120 17:20:21
    0.00000383 582704.96500268 17:12:42
    0.00000383 562808.88684177 17:12:42
    0.00000383 834291.01446151 17:10:20
    0.00000384 500982.47597891 17:05:06
    0.00000383 1068827.29927760 17:00:18
    0.00000383 1643462.55179482 17:00:18
    0.00000384 77787150.39365999 16:56:05
    0.00000384 21629493.97799000 16:56:05
    0.00000385 21629493.97799000 16:56:05
    0.00000385 1427684.26347497 16:54:18
    0.00000385 2195635.03328382 16:54:18
    0.00000383 5409736.37414848 16:38:18
    0.00000383 8318156.17720580 16:38:18
    0.00000381 21629493.97799000 16:31:37
    0.00000377 899165.06101478 16:28:19
    0.00000378 21629493.97799000 16:26:33
    0.00000379 21629493.97799000 16:21:12
    0.00000381 21629493.97799000 15:44:06
    0.00000370 3485929.39366188 15:20:37
    0.00000371 6411033.27268955 15:20:37
    0.00000371 15218460.70530045 15:20:37
    0.00000372 3101114.98332173 15:17:26
    0.00000371 21629493.97799000 15:08:56
    0.00000371 90789269.41667420 15:08:56
    0.00000372 21629493.97799000 15:08:56
    0.00000373 21629493.97799000 15:06:55
    0.00000364 75760000.00000000 14:46:09
    0.00000364 102200000.00000000 14:46:09
    0.00000364 102200000.00000000 14:45:30
    0.00000359 2173836.87015450 14:38:41
    0.00000359 3342809.59214848 14:38:41
    0.00000350 21629493.97799000 14:08:21
    0.00000350 21629493.97799000 14:08:12
    0.00000350 17968797.00000000 14:06:39
    0.00000350 21629493.97799000 14:02:45
    0.00000350 835101.95486080 13:31:16
    0.00000350 1283981.19257015 13:31:16
    0.00000350 21629493.97799000 13:08:36
    0.00000348 403194.20753729 12:30:01
    0.00000348 620028.22930538 12:30:01
    0.00000348 21629493.97799000 11:54:54
    0.00000348 21629493.97799000 11:54:44
    0.00000347 21629493.97799000 11:21:17
    0.00000347 394492.91087900 11:18:27
    0.00000347 21235001.06711100 11:18:27
    0.00000345 21629493.97799000 10:40:01
    0.00000345 785712.02084618 10:34:56
    0.00000345 1208179.56291317 10:34:56
    0.00000345 21629493.97799000 10:34:56
    0.00000346 21629493.97799000 10:08:54
    0.00000346 641121.46501868 09:41:44
    0.00000346 985429.40041047 09:41:44
    0.00000347 65104101.43856000 09:20:54
    0.00000347 21629493.97799000 09:19:38
    0.00000347 21629493.97799000 08:51:46
    0.00000347 1160488.79022586 08:49:32
    0.00000347 1316882.16931158 08:49:32
    0.00000348 473140.41838902 08:22:23
    0.00000349 1372716.42146438 08:11:24
    0.00000349 2111001.48777699 08:11:24
    0.00000346 1978107.80663847 07:53:23
    0.00000346 3041588.17636418 07:53:23
    0.00000348 21629493.97799000 07:43:59
    0.00000347 21629493.97799000 07:33:56
    0.00000346 14179081.99999800 06:19:32
    0.00000345 21629493.97799000 05:54:17
    0.00000342 490137.74853265 05:23:27
    0.00000342 753596.64409524 05:23:27
    0.00000343 773300.47122156 05:21:43
    0.00000343 623503.16041779 05:21:43
    0.00000344 21629493.97799000 05:20:15
    0.00000344 419514.22301727 05:20:15
    0.00000346 21629493.97799000 04:55:18
    0.00000344 77673564.68652229 04:36:26
    0.00000344 729396.50359082 04:36:21
    0.00000346 21629493.97799000 04:10:14
    0.00000347 21629493.97799000 03:20:40
    0.00000347 21629493.97799000 03:17:33
    0.00000345 21629493.97799000 02:22:54
    0.00000343 2340678.05742714 02:04:01
    0.00000346 21629493.97799000 01:43:05
    0.00000346 21629493.97799000 01:25:19
    0.00000345 582587.57997035 01:17:21
    0.00000344 789663.94565075 01:13:20
    0.00000344 1658203.24611324 01:13:20
    0.00000343 21629493.97799000 01:10:52
    Desconectar
    AAA
    Ayuda
    🙂 🤣 😎 🤗 😛 😉 😜 🤑 🤔 😑 😴 😕 🙃 😲 😇 🙁 😢 😬 😟 😠 🕺 🏃 💪 ✌ 👌 👍 👎 👏 👋 🤝 🍺 🍻 🐋 🐟 🦈 🗽 🚄 ✈ 🛑 🚀 🏦 🌚 ⭐ 🌞 ⚡ 🏆 💰 💲 🔨 ❓ ❗ 💯 🔶 🏁
    ☺
    Iniciar sesión o Registrar y chatea
    24 Horas
    Variación
    +13.57%
    Volumen
    2,467,643,030
    Máx.
    0.00000385
    Mín.
    0.00000339
    7 Días
    Variación
    +0.26%
    Volumen
    39,592,032,020
    Máx.
    0.00000400
    Mín.
    0.00000337
    30 Días
    Variación
    +33.22%
    Volumen
    231,041,150,101
    Máx.
    0.00000454
    Mín.
    0.00000254
    DOGE, SHIB, PEPE, or Something Else: Which Meme Coin Can Make History in September? (3 AIs Weigh In)
    "DOGE remains the most likely to record the largest move in dollar terms and lead the entire sector," ChatGPT stated.
    cryptopotato.com
    Sept 3, 2026 00:41
    Pepe price rallies 25% as whale demand and futures interest surge
    Key takeaways Pepe has gained 25% this week, including a combined 22% advance over the previous two days. Seven whale transactions worth more than $1 million each occurred Thursday, the highest...
    coinjournal.net
    Aug 21, 2026 08:41
    PEPE Supply on Exchanges Just Took a Massive Hit – What’s Next?
    A drop in PEPE exchange balances has added to bullish expectations despite muted trader interest.
    cryptopotato.com
    Aug 6, 2026 20:02
    PEPE Exchange Outflows Hit Nearly 2-Year High as Whales Accumulate
    Pepe (PEPE) recorded its largest single-day exchange outflow since November 2024, with 4.54 trillion tokens leaving trading platforms, signaling that holders are moving supply away from immediate...
    beincrypto.com
    Aug 6, 2026 04:57
    Meme Coin Based on White House Shooter Conspiracy Rallies 320%
    $HENRY surged 300% after a 2023 Pepe tweet appeared to name the White House shooter, fueling a viral time-travel meme. The post Meme Coin Based on White House Shooter Conspiracy Rallies 320%...
    beincrypto.com
    Apr 27, 2026 16:11
    PEPE surges 4% as market sentiment improves, eyes Key resistance breakout
    Key takeaways Pepe extends gains on Wednesday, stretching its rally from the 50-day EMA. Derivatives data show heightened retail activity as risk-on sentiment returns to the market. Pepe (PEPE) is...
    coinjournal.net
    Apr 22, 2026 11:44
    Why The PEPE Price Could Stage A 55X Rally To Reach New $0.0001 ATH
    The PEPE price has now started to edge back into bullish conversations after the recent inflows into the crypto market. The last time PEPE’s weekly chart printed the kind of structure now...
    newsbtc.com
    Apr 21, 2026 15:30
    Pepe (PEPE) surges 9%, drawing interest from whales
    Key takeaways PEPE is up 9% in the last 24 hours, making it one of the best performers among the top 50 cryptocurrencies by market cap. The rally comes amid renewed interest from whales and retail...
    coinjournal.net
    Apr 16, 2026 07:40
    Murad Says SPX6900 (SPX) Is Primed for a Rally — Is He Right This Time?
    Crypto influencer Murad Mahmudov claims SPX6900 (SPX) is stabilizing at the same market cap level where Dogecoin (DOGE) and Pepe (PEPE) consolidated before their explosive rallies. The...
    beincrypto.com
    Apr 5, 2026 21:36
    The Shiba Inu Of This Cycle: Analyst Shares Why It Is Better To Buy PEPE Now
    In the bull market cycle of 2021-2022, the Shiba Inu meme coin made waves in a way that changed the face of meme coins forever. This came after Dogecoin’s initial 36,000% rally, and Shiba Inu...
    newsbtc.com
    Apr 4, 2026 07:30
    PEPE Explodes by 18% Amid Altcoin Rally, BTC Tapped $74K: Market Watch
    The frog-themed meme coin is today's biggest gainer, followed by TAO, DOT, and BONK.
    cryptopotato.com
    Mar 16, 2026 10:56
    Should PEPE traders brace for volatility as short squeeze potential builds?
    The memecoin market has seen its collective market capitalization drop by 48% over the past year, and 6.9% over the past month, according to CoinMarketCap. According to Glassnode, the memecoin...
    ambcrypto.com
    Mar 7, 2026 18:00
    Simplemente teclea el comando en el chat. Sustituir nick1 por el apodo real.
    • /ignore nick1 Ignorar un usuario del chat
    • /unignore nick1 Dejar de ignorar un usuario del chat
    • /ignorelist Mostrar usuarios del chat que has ignorado